Morrisville, VT

9:32 AM EDT on September 19, 2019 (GMT -0400)
Morrisville Stowe State

Weather History for KMVL - August, 2019

Change the Weather History Date:

Thursday, August 22, 2019

  Actual Average Record
Temperature  
Mean Temperature 67 °F 65 °F  
Max Temperature 80 °F 77 °F 85 °F (2013)
Min Temperature 54 °F 53 °F 41 °F (2007)
Degree Days  
Heating Degree Days 0 2  
Month to date heating degree days 22 39  
Since 1 June heating degree days 175 192  
Since 1 July heating degree days 32 69  
Cooling Degree Days 2 2  
Month to date cooling degree days 57 60  
Year to date cooling degree days 239 228  
Since 1 June cooling degree days 238 220  
Growing Degree Days 17 (Base 50)    
Moisture  
Dew Point 62 °F    
Average Humidity 86    
Maximum Humidity 100    
Minimum Humidity 43    
Precipitation  
Precipitation T in 0.12 in 0.31 in (2002)
Month to date precipitation 3.05 3.03  
Year to date precipitation 26.49 22.76  
Sea Level Pressure  
Sea Level Pressure 29.83 in    
Wind  
Wind Speed 3 mph ()    
Max Wind Speed 12 mph    
Max Gust Speed 18 mph    
Visibility 5.9 miles    
Events Fog    
T = Trace of Precipitation, MM = Missing Value Source: Averaged Metar Reports

Daily Weather History Graph

Daily Weather History Graph

Search for Another Location

Airport or City:

Astronomy

Aug. 22, 2019 Rise Set
Actual Time 6:01 AM EDT 7:44 PM EDT
Civil Twilight 5:30 AM EDT 8:15 PM EDT
Nautical Twilight 4:52 AM EDT 8:53 PM EDT
Astronomical Twilight 4:11 AM EDT 9:33 PM EDT
Moon 11:16 PM EDT (8/22) 12:49 PM EDT (8/22)
Length of Visible Light 14h 45m
Length of Day
13h 43m
Waning Gibbous, 60% of the Moon is Illuminated
Aug 22
Waning Gibbous
Aug 23
Last Quarter
Aug 30
New
Sep 5
First Quarter
Sep 14
Full

Hourly Weather History & Observations

Time (EDT) Temp. Heat Index Dew Point Humidity Pressure Visibility Wind Dir Wind Speed Gust Speed Precip Events Conditions
12:30 AM 64.9 °F - 64.0 °F 97% 29.82 in 1.2 mi Calm Calm - N/A   Overcast
12:48 AM 64.4 °F - 64.4 °F 100% 29.82 in 3.0 mi South 5.8 mph - N/A   Overcast
12:54 AM 64.0 °F - 64.0 °F 100% 29.82 in 7.0 mi South 5.8 mph - N/A   Overcast
1:35 AM 64.9 °F - 64.0 °F 97% 29.82 in 2.0 mi Calm Calm - N/A   Overcast
1:44 AM 64.9 °F - 64.0 °F 97% 29.82 in 1.2 mi Calm Calm - N/A   Overcast
1:54 AM 64.0 °F - 64.0 °F 100% 29.82 in 1.0 mi Calm Calm - N/A   Mist
2:10 AM 64.0 °F - 64.0 °F 100% 29.82 in 0.8 mi SSW 3.5 mph - N/A   Mist
2:54 AM 64.0 °F - 63.0 °F 96% 29.81 in 0.5 mi South 3.5 mph - N/A Fog Fog
3:54 AM 64.0 °F - 63.0 °F 96% 29.80 in 0.8 mi SSE 3.5 mph - N/A   Mist
4:25 AM 64.0 °F - 63.0 °F 96% 29.79 in 1.0 mi SE 3.5 mph - N/A   Mist
4:35 AM 64.0 °F - 63.0 °F 96% 29.80 in 1.2 mi SE 3.5 mph - N/A   Overcast
4:49 AM 64.4 °F - 62.6 °F 94% 29.80 in 2.0 mi Calm Calm - N/A   Overcast
4:54 AM 64.0 °F - 63.0 °F 96% 29.80 in 1.5 mi Calm Calm - N/A   Overcast
5:11 AM 64.0 °F - 63.0 °F 96% 29.80 in 2.0 mi Calm Calm - N/A   Overcast
5:25 AM 64.0 °F - 63.0 °F 96% 29.80 in 0.8 mi Calm Calm - N/A   Mist
5:38 AM 64.0 °F - 63.0 °F 96% 29.80 in 1.2 mi Calm Calm - N/A   Overcast
5:46 AM 64.0 °F - 63.0 °F 96% 29.80 in 3.0 mi SSE 3.5 mph - N/A   Overcast
5:54 AM 64.0 °F - 63.0 °F 96% 29.80 in 7.0 mi Calm Calm - N/A   Overcast
6:17 AM 64.0 °F - 63.0 °F 96% 29.81 in 1.8 mi Calm Calm - N/A   Overcast
6:30 AM 64.0 °F - 63.0 °F 96% 29.81 in 1.0 mi Calm Calm - N/A   Overcast
6:42 AM 64.0 °F - 63.0 °F 96% 29.81 in 1.5 mi SSE 3.5 mph - N/A   Overcast
6:54 AM 64.0 °F - 63.0 °F 96% 29.81 in 2.0 mi South 3.5 mph - N/A   Overcast
7:02 AM 64.0 °F - 64.0 °F 100% 29.81 in 9.0 mi SSE 4.6 mph - N/A   Mostly Cloudy
7:29 AM 64.9 °F - 64.0 °F 97% 29.81 in 10.0 mi South 4.6 mph - N/A   Mostly Cloudy
7:38 AM 64.9 °F - 64.0 °F 97% 29.81 in 10.0 mi SSE 5.8 mph - N/A   Overcast
7:54 AM 64.9 °F - 64.0 °F 97% 29.81 in 10.0 mi South 4.6 mph - N/A   Overcast
8:54 AM 69.1 °F - 66.0 °F 90% 29.82 in 10.0 mi North 6.9 mph - 0.00 in   Mostly Cloudy
9:01 AM 68.0 °F - 64.9 °F 90% 29.81 in 10.0 mi ENE 3.5 mph - N/A   Mostly Cloudy
9:54 AM 71.1 °F - 68.0 °F 90% 29.82 in 10.0 mi South 4.6 mph - N/A   Mostly Cloudy
10:54 AM 75.9 °F - 68.0 °F 76% 29.81 in 10.0 mi South 6.9 mph - N/A   Mostly Cloudy
11:54 AM 75.9 °F - 64.9 °F 69% 29.82 in 10.0 mi WSW 3.5 mph - N/A   Partly Cloudy
12:54 PM 77.0 °F - 62.1 °F 60% 29.82 in 10.0 mi Calm Calm - N/A   Clear
1:54 PM 80.1 °F 80.4 °F 57.0 °F 45% 29.83 in 10.0 mi NW 9.2 mph - N/A   Clear
2:54 PM 75.9 °F - 55.0 °F 48% 29.84 in 10.0 mi Calm Calm - N/A   Clear
3:54 PM 75.0 °F - 57.0 °F 53% 29.85 in 10.0 mi Variable 4.6 mph - N/A   Clear
4:54 PM 77.0 °F - 54.0 °F 45% 29.85 in 10.0 mi ENE 4.6 mph - N/A   Clear
5:54 PM 75.0 °F - 54.0 °F 48% 29.85 in 10.0 mi NNW 6.9 mph - N/A   Clear
6:54 PM 72.0 °F - 54.0 °F 53% 29.86 in 10.0 mi NW 6.9 mph - N/A   Clear
7:54 PM 66.0 °F - 55.9 °F 70% 29.87 in 10.0 mi Calm Calm - N/A   Clear
8:54 PM 60.1 °F - 55.0 °F 83% 29.89 in 10.0 mi SSE 3.5 mph - N/A   Clear
9:54 PM 57.0 °F - 54.0 °F 89% 29.91 in 10.0 mi South 3.5 mph - N/A   Scattered Clouds
10:54 PM 57.0 °F - 54.0 °F 89% 29.91 in 10.0 mi South 4.6 mph - N/A   Partly Cloudy
11:54 PM 55.0 °F - 53.1 °F 93% 29.91 in 10.0 mi South 5.8 mph - N/A   Clear